Location: Saluda
(35.2377°N, 82.3468°W)
Time: 16:23:49
(UTC+00:00)

Transit 2A - Pass Details

Date: 03 October 2022
Orbit: 598 x 959 km, 66.7° (Epoch: 06 December)

Event Time Altitude Azimuth Distance (km) Brightness Sun altitude
Rises 03:49:32 0° 201° (SSW) 2,983 - -52.5°
Reaches altitude 10° 03:51:53 10° 199° (SSW) 2,030 - -52.8°
Maximum altitude 03:56:24 74° 115° (ESE) 642 - -53.4°
Drops below altitude 10° 04:00:43 10° 31° (NNE) 1,944 - -53.9°
Sets 04:02:56 0° 29° (NNE) 2,844 - -54.1°
